Time,TemperatureF,DewpointF,PressureIn,WindDirection,WindDirectionDegrees,WindSpeedMPH,WindSpeedGustMPH,Humidity,HourlyPrecipIn,Conditions,Clouds,dailyrainin,SoftwareType,DateUTC
2013-08-11 00:09:00,68.8,54.0,30.02,NW,324,4.0,13.0,60,0.00,,,0.00,weatherlink.com 1.10,2013-08-11 04:09:00,
2013-08-11 00:24:00,68.4,54.0,30.02,NNW,333,8.0,10.0,61,0.00,,,0.00,weatherlink.com 1.10,2013-08-11 04:24:00,
2013-08-11 00:39:00,68.2,55.0,30.02,NNW,334,7.0,11.0,62,0.00,,,0.00,weatherlink.com 1.10,2013-08-11 04:39:00,
2013-08-11 00:54:00,67.6,54.0,30.02,NW,314,1.0,14.0,63,0.00,,,0.00,weatherlink.com 1.10,2013-08-11 04:54:00,
2013-08-11 01:09:00,67.4,55.0,30.02,North,355,4.0,10.0,64,0.00,,,0.00,weatherlink.com 1.10,2013-08-11 05:09:00,
2013-08-11 01:24:00,67.1,54.0,30.03,North,360,6.0,9.0,64,0.00,,,0.00,weatherlink.com 1.10,2013-08-11 05:24:00,
2013-08-11 01:39:00,66.8,54.0,30.03,NNW,334,1.0,11.0,64,0.00,,,0.00,weatherlink.com 1.10,2013-08-11 05:39:00,
2013-08-11 01:54:00,66.6,54.0,30.03,NNE,33,4.0,10.0,64,0.00,,,0.00,weatherlink.com 1.10,2013-08-11 05:54:00,
2013-08-11 02:24:00,66.3,54.0,30.04,North,355,6.0,8.0,64,0.00,,,0.00,weatherlink.com 1.10,2013-08-11 06:24:00,
2013-08-11 02:39:00,66.1,53.0,30.04,North,360,2.0,6.0,64,0.00,,,0.00,weatherlink.com 1.10,2013-08-11 06:39:00,
2013-08-11 03:09:00,65.9,54.0,30.04,North,11,2.0,5.0,65,0.00,,,0.00,weatherlink.com 1.10,2013-08-11 07:09:00,
2013-08-11 03:24:00,65.7,54.0,30.04,North,11,0.0,5.0,66,0.00,,,0.00,weatherlink.com 1.10,2013-08-11 07:24:00,
2013-08-11 03:39:00,65.4,53.0,30.05,North,10,4.0,5.0,65,0.00,,,0.00,weatherlink.com 1.10,2013-08-11 07:39:00,
2013-08-11 03:54:00,65.4,53.0,30.05,North,10,0.0,4.0,65,0.00,,,0.00,weatherlink.com 1.10,2013-08-11 07:54:00,
2013-08-11 04:09:00,65.3,54.0,30.05,North,10,3.0,4.0,66,0.00,,,0.00,weatherlink.com 1.10,2013-08-11 08:09:00,
2013-08-11 04:24:00,64.9,54.0,30.05,North,10,0.0,3.0,68,0.00,,,0.00,weatherlink.com 1.10,2013-08-11 08:24:00,
2013-08-11 04:39:00,64.3,54.0,30.05,North,10,0.0,4.0,70,0.00,,,0.00,weatherlink.com 1.10,2013-08-11 08:39:00,
2013-08-11 04:54:00,63.9,54.0,30.06,North,10,0.0,2.0,71,0.00,,,0.00,weatherlink.com 1.10,2013-08-11 08:54:00,
2013-08-11 05:09:00,63.6,54.0,30.06,North,10,0.0,4.0,71,0.00,,,0.00,weatherlink.com 1.10,2013-08-11 09:09:00,
2013-08-11 05:24:00,63.4,54.0,30.06,North,9,0.0,5.0,72,0.00,,,0.00,weatherlink.com 1.10,2013-08-11 09:24:00,
2013-08-11 05:39:00,63.2,54.0,30.06,North,9,4.0,4.0,73,0.00,,,0.00,weatherlink.com 1.10,2013-08-11 09:39:00,
2013-08-11 05:54:00,63.0,54.0,30.07,NW,325,0.0,5.0,73,0.00,,,0.00,weatherlink.com 1.10,2013-08-11 09:54:00,
2013-08-11 06:09:00,62.7,54.0,30.07,NW,319,3.0,6.0,74,0.00,,,0.00,weatherlink.com 1.10,2013-08-11 10:09:00,
2013-08-11 06:24:00,62.6,54.0,30.07,NW,316,2.0,5.0,73,0.00,,,0.00,weatherlink.com 1.10,2013-08-11 10:24:00,
2013-08-11 06:39:00,62.7,54.0,30.08,NW,310,5.0,7.0,72,0.00,,,0.00,weatherlink.com 1.10,2013-08-11 10:39:00,
2013-08-11 07:09:00,63.3,53.0,30.09,NW,304,4.0,8.0,70,0.00,,,0.00,weatherlink.com 1.10,2013-08-11 11:09:00,
2013-08-11 07:24:00,64.0,54.0,30.09,NW,306,4.0,8.0,69,0.00,,,0.00,weatherlink.com 1.10,2013-08-11 11:24:00,
2013-08-11 07:39:00,64.9,53.0,30.09,NW,313,8.0,9.0,66,0.00,,,0.00,weatherlink.com 1.10,2013-08-11 11:39:00,
2013-08-11 07:54:00,65.7,52.0,30.08,WNW,297,9.0,11.0,62,0.00,,,0.00,weatherlink.com 1.10,2013-08-11 11:54:00,
2013-08-11 08:24:00,67.0,53.0,30.09,WNW,301,5.0,9.0,61,0.00,,,0.00,weatherlink.com 1.10,2013-08-11 12:24:00,
2013-08-11 08:39:00,67.4,53.0,30.09,NNW,346,8.0,10.0,60,0.00,,,0.00,weatherlink.com 1.10,2013-08-11 12:39:00,
2013-08-11 08:54:00,67.4,53.0,30.09,NW,321,4.0,10.0,61,0.00,,,0.00,weatherlink.com 1.10,2013-08-11 12:54:00,
2013-08-11 09:09:00,68.4,54.0,30.09,NW,323,4.0,10.0,60,0.00,,,0.00,weatherlink.com 1.10,2013-08-11 13:09:00,
2013-08-11 09:24:00,69.2,53.0,30.08,WNW,295,6.0,9.0,57,0.00,,,0.00,weatherlink.com 1.10,2013-08-11 13:24:00,
2013-08-11 09:39:00,70.1,53.0,30.08,NW,308,7.0,9.0,54,0.00,,,0.00,weatherlink.com 1.10,2013-08-11 13:39:00,
2013-08-11 09:55:00,70.8,52.0,30.08,NNW,336,2.0,10.0,52,0.00,,,0.00,weatherlink.com 1.10,2013-08-11 13:55:00,
2013-08-11 10:10:00,71.6,51.0,30.08,North,5,4.0,12.0,49,0.00,,,0.00,weatherlink.com 1.10,2013-08-11 14:10:00,
2013-08-11 10:25:00,72.4,49.0,30.08,NW,317,4.0,14.0,43,0.00,,,0.00,weatherlink.com 1.10,2013-08-11 14:25:00,
2013-08-11 10:40:00,72.1,50.0,30.08,NW,306,7.0,13.0,46,0.00,,,0.00,weatherlink.com 1.10,2013-08-11 14:40:00,
2013-08-11 10:55:00,73.4,50.0,30.08,NW,317,12.0,16.0,44,0.00,,,0.00,weatherlink.com 1.10,2013-08-11 14:55:00,
2013-08-11 11:10:00,73.3,50.0,30.07,NNW,329,6.0,12.0,44,0.00,,,0.00,weatherlink.com 1.10,2013-08-11 15:10:00,
2013-08-11 11:25:00,73.7,50.0,30.07,North,350,0.0,13.0,43,0.00,,,0.00,weatherlink.com 1.10,2013-08-11 15:25:00,
2013-08-11 11:40:00,74.5,50.0,30.07,WNW,299,8.0,16.0,42,0.00,,,0.00,weatherlink.com 1.10,2013-08-11 15:40:00,
2013-08-11 11:55:00,74.2,50.0,30.07,NW,316,8.0,16.0,43,0.00,,,0.00,weatherlink.com 1.10,2013-08-11 15:55:00,
2013-08-11 12:10:00,74.6,51.0,30.07,NNW,347,5.0,14.0,44,0.00,,,0.00,weatherlink.com 1.10,2013-08-11 16:10:00,
2013-08-11 12:25:00,75.1,50.0,30.06,NNW,340,9.0,18.0,42,0.00,,,0.00,weatherlink.com 1.10,2013-08-11 16:25:00,
2013-08-11 12:40:00,75.6,51.0,30.06,NNW,342,1.0,12.0,43,0.00,,,0.00,weatherlink.com 1.10,2013-08-11 16:40:00,
2013-08-11 12:55:00,76.0,52.0,30.05,SSE,164,2.0,16.0,43,0.00,,,0.00,weatherlink.com 1.10,2013-08-11 16:55:00,
2013-08-11 13:10:00,76.5,52.0,30.04,NW,319,9.0,18.0,42,0.00,,,0.00,weatherlink.com 1.10,2013-08-11 17:10:00,
2013-08-11 13:25:00,76.0,51.0,30.04,North,355,1.0,13.0,42,0.00,,,0.00,weatherlink.com 1.10,2013-08-11 17:25:00,
2013-08-11 14:10:00,77.0,51.0,30.04,West,263,9.0,15.0,41,0.00,,,0.00,weatherlink.com 1.10,2013-08-11 18:10:00,
2013-08-11 14:25:00,78.1,52.0,30.04,NE,51,0.0,8.0,41,0.00,,,0.00,weatherlink.com 1.10,2013-08-11 18:25:00,
2013-08-11 14:40:00,78.4,52.0,30.03,WNW,289,7.0,14.0,40,0.00,,,0.00,weatherlink.com 1.10,2013-08-11 18:40:00,
2013-08-11 14:55:00,78.0,53.0,30.03,West,280,6.0,9.0,42,0.00,,,0.00,weatherlink.com 1.10,2013-08-11 18:55:00,
2013-08-11 15:10:00,78.0,53.0,30.03,NW,306,2.0,12.0,42,0.00,,,0.00,weatherlink.com 1.10,2013-08-11 19:10:00,
2013-08-11 15:25:00,78.0,53.0,30.03,NW,311,0.0,16.0,42,0.00,,,0.00,weatherlink.com 1.10,2013-08-11 19:25:00,
2013-08-11 15:40:00,78.0,53.0,30.03,WNW,302,7.0,15.0,42,0.00,,,0.00,weatherlink.com 1.10,2013-08-11 19:40:00,
2013-08-11 16:10:00,77.7,54.0,30.02,NW,320,4.0,10.0,44,0.00,,,0.00,weatherlink.com 1.10,2013-08-11 20:10:00,
2013-08-11 16:40:00,78.5,53.0,30.02,NW,315,12.0,18.0,42,0.00,,,0.00,weatherlink.com 1.10,2013-08-11 20:40:00,
2013-08-11 16:55:00,77.8,53.0,30.01,West,279,5.0,17.0,43,0.00,,,0.00,weatherlink.com 1.10,2013-08-11 20:55:00,
2013-08-11 17:10:00,79.1,54.0,30.01,NW,318,5.0,16.0,42,0.00,,,0.00,weatherlink.com 1.10,2013-08-11 21:10:00,
2013-08-11 17:25:00,78.5,53.0,30.01,WNW,284,7.0,10.0,42,0.00,,,0.00,weatherlink.com 1.10,2013-08-11 21:25:00,
2013-08-11 17:40:00,78.2,54.0,30.01,WNW,293,0.0,8.0,44,0.00,,,0.00,weatherlink.com 1.10,2013-08-11 21:40:00,
2013-08-11 17:55:00,77.5,54.0,30.01,NW,318,4.0,14.0,45,0.00,,,0.00,weatherlink.com 1.10,2013-08-11 21:55:00,
2013-08-11 18:25:00,77.8,55.0,30.01,NW,314,0.0,12.0,45,0.00,,,0.00,weatherlink.com 1.10,2013-08-11 22:25:00,
2013-08-11 18:40:00,78.0,55.0,30.00,WNW,294,12.0,13.0,45,0.00,,,0.00,weatherlink.com 1.10,2013-08-11 22:40:00,
2013-08-11 18:55:00,77.0,55.0,30.01,NW,309,7.0,15.0,46,0.00,,,0.00,weatherlink.com 1.10,2013-08-11 22:55:00,
2013-08-11 19:10:00,77.2,55.0,30.01,WNW,293,8.0,12.0,46,0.00,,,0.00,weatherlink.com 1.10,2013-08-11 23:10:00,
2013-08-11 20:10:00,75.9,55.0,30.01,WNW,301,4.0,8.0,49,0.00,,,0.00,weatherlink.com 1.10,2013-08-12 00:10:00,
2013-08-11 20:25:00,75.3,56.0,30.01,WNW,293,5.0,8.0,52,0.00,,,0.00,weatherlink.com 1.10,2013-08-12 00:25:00,
2013-08-11 20:55:00,74.4,57.0,30.02,WNW,289,6.0,8.0,55,0.00,,,0.00,weatherlink.com 1.10,2013-08-12 00:55:00,
2013-08-11 21:55:00,72.2,58.0,30.04,WNW,282,3.0,6.0,61,0.00,,,0.00,weatherlink.com 1.10,2013-08-12 01:55:00,
2013-08-11 22:10:00,71.9,58.0,30.04,WNW,283,5.0,6.0,62,0.00,,,0.00,weatherlink.com 1.10,2013-08-12 02:10:00,
2013-08-11 22:25:00,71.7,58.0,30.04,WNW,288,8.0,9.0,63,0.00,,,0.00,weatherlink.com 1.10,2013-08-12 02:25:00,
2013-08-11 22:40:00,70.4,58.0,30.04,West,281,3.0,9.0,66,0.00,,,0.00,weatherlink.com 1.10,2013-08-12 02:40:00,
2013-08-11 23:25:00,68.5,59.0,30.04,WNW,294,6.0,6.0,72,0.00,,,0.00,weatherlink.com 1.10,2013-08-12 03:25:00,
2013-08-11 23:40:00,68.2,60.0,30.04,WNW,297,5.0,8.0,74,0.00,,,0.00,weatherlink.com 1.10,2013-08-12 03:40:00,
2013-08-11 23:55:00,67.9,60.0,30.04,NW,306,3.0,6.0,75,0.00,,,0.00,weatherlink.com 1.10,2013-08-12 03:55:00,